Location: Buch
(50.1863°N, 11.0141°E)
Time: 19:20:09
(UTC+00:00)

ATLAS 3B R/B - Pass Details

Date: 18 January 2020
Orbit: 1020 x 1175 km, 63.8° (Epoch: 20 February)

Event Time Altitude Azimuth Distance (km) Brightness Sun altitude
Exits shadow 03:50:54 28° 353° (N) 1,854 3.9 -30.9°
Maximum altitude 03:52:41 32° 21° (NNE) 1,728 3.9 -30.6°
Drops below altitude 10° 03:58:41 10° 83° (E) 2,897 5.9 -29.6°
Sets 04:01:43 0° 93° (E) 3,875 6.9 -29.1°
